BGA335 EDHI-UKLL

Flight info

Callsign BGA335
Flight time 1h 55m
Altitude 33000
Route AMLUH1W AMLUH L619 PODUS/N0403F310 L619 RADEL L867 SUBIX/N0418F330 L980 ADVAB L981 DIBED
Aircraft A337/H-SDE3GHIJ2J3J5M1RVWXY/LB2D1

Departure

Time 2026-04-22 16:57
Airport Hamburg-Finkenwerder Airport (EDHI)

Arrival

Time 2026-04-22 18:52
Airport Lviv International Airport (UKLL)
Time Latitude Longitude Altitude Speed Heading
2026-04-22 16:33 53.53872 9.81946 25 ft 0 kts 16°
2026-04-22 16:42 53.53852 9.81936 27 ft 4 kts 20°
2026-04-22 16:43 53.53827 9.81918 30 ft 4 kts 31°
2026-04-22 16:43 53.53806 9.81891 30 ft 4 kts 51°
2026-04-22 16:43 53.53796 9.81855 30 ft 3 kts 100°
2026-04-22 16:43 53.53798 9.81842 30 ft 0 kts 105°
2026-04-22 16:49 53.53796 9.81855 30 ft 4 kts 105°
2026-04-22 16:49 53.53780 9.81952 29 ft 13 kts 105°
2026-04-22 16:50 53.53754 9.82113 29 ft 15 kts 105°
2026-04-22 16:50 53.53726 9.82296 28 ft 17 kts 104°
2026-04-22 16:50 53.53695 9.82501 30 ft 19 kts 104°
2026-04-22 16:50 53.53651 9.82692 29 ft 12 kts 130°
2026-04-22 16:51 53.53585 9.82785 31 ft 13 kts 143°
2026-04-22 16:51 53.53507 9.82887 30 ft 15 kts 141°
2026-04-22 16:51 53.53459 9.82939 29 ft 5 kts 152°
2026-04-22 16:51 53.53449 9.82952 30 ft 0 kts 145°
2026-04-22 16:52 53.53447 9.82954 30 ft 1 kts 145°
2026-04-22 16:52 53.53434 9.82969 28 ft 4 kts 145°
2026-04-22 16:52 53.53397 9.83012 30 ft 9 kts 143°
2026-04-22 16:52 53.53353 9.83088 30 ft 9 kts 114°
2026-04-22 16:53 53.53366 9.83194 26 ft 11 kts 61°
2026-04-22 16:53 53.53420 9.83322 31 ft 17 kts 53°
2026-04-22 16:53 53.53507 9.83506 31 ft 23 kts 50°
2026-04-22 16:53 53.53623 9.83745 29 ft 29 kts 51°
2026-04-22 16:54 53.53755 9.84030 26 ft 33 kts 53°
2026-04-22 16:54 53.53901 9.84342 28 ft 35 kts 51°
2026-04-22 16:54 53.54061 9.84681 26 ft 38 kts 52°
2026-04-22 16:54 53.54222 9.85021 29 ft 35 kts 52°
2026-04-22 16:55 53.54273 9.85097 31 ft 4 kts 339°
2026-04-22 16:55 53.54275 9.85051 30 ft 5 kts 243°
2026-04-22 16:55 53.54225 9.84995 29 ft 11 kts 213°
2026-04-22 16:55 53.54194 9.84951 28 ft 0 kts 226°
2026-04-22 16:56 53.54156 9.84879 28 ft 32 kts 229°
2026-04-22 16:56 53.53865 9.84251 28 ft 102 kts 231°
2026-04-22 16:56 53.53255 9.82970 104 ft 174 kts 232°
2026-04-22 16:57 53.52501 9.81187 922 ft 205 kts 237°
2026-04-22 16:57 53.51720 9.78961 1009 ft 230 kts 244°
2026-04-22 16:57 53.51232 9.76410 1088 ft 240 kts 264°
2026-04-22 16:57 53.51595 9.73621 1608 ft 254 kts 298°
2026-04-22 16:58 53.52162 9.71898 2047 ft 248 kts 295°
2026-04-22 16:58 53.52452 9.68333 2752 ft 235 kts 256°
2026-04-22 16:58 53.51695 9.65689 2766 ft 267 kts 235°
2026-04-22 16:58 53.50301 9.63599 2899 ft 276 kts 208°
2026-04-22 16:59 53.48467 9.62762 3516 ft 276 kts 181°
2026-04-22 16:59 53.46643 9.63515 4537 ft 268 kts 149°
2026-04-22 16:59 53.45485 9.65764 5671 ft 253 kts 117°
2026-04-22 16:59 53.44611 9.68266 6764 ft 246 kts 126°
2026-04-22 17:00 53.43590 9.70568 7719 ft 245 kts 131°
2026-04-22 17:00 53.41208 9.74484 8998 ft 237 kts 135°
2026-04-22 17:00 53.40265 9.76833 9497 ft 251 kts 109°
2026-04-22 17:01 53.40039 9.79818 9865 ft 270 kts 88°
2026-04-22 17:01 53.40206 9.83063 10200 ft 289 kts 83°
2026-04-22 17:01 53.40442 9.86519 10490 ft 308 kts 83°
2026-04-22 17:01 53.40679 9.90182 10823 ft 323 kts 84°
2026-04-22 17:02 53.40905 9.93970 11331 ft 330 kts 84°
2026-04-22 17:02 53.41123 9.97821 11936 ft 334 kts 84°
2026-04-22 17:02 53.41336 10.01711 12543 ft 337 kts 84°
2026-04-22 17:02 53.41547 10.05640 13131 ft 340 kts 85°
2026-04-22 17:03 53.41754 10.09559 13703 ft 343 kts 85°
2026-04-22 17:03 53.41963 10.13554 14279 ft 346 kts 85°
2026-04-22 17:03 53.42172 10.17585 14812 ft 349 kts 85°
2026-04-22 17:03 53.42381 10.21651 15358 ft 352 kts 85°
2026-04-22 17:04 53.42590 10.25756 15875 ft 354 kts 85°
2026-04-22 17:04 53.42621 10.29903 16390 ft 357 kts 95°
2026-04-22 17:04 53.42161 10.33996 16868 ft 360 kts 108°
2026-04-22 17:04 53.41242 10.37908 17362 ft 362 kts 114°
2026-04-22 17:05 53.40138 10.41721 17836 ft 365 kts 117°
2026-04-22 17:05 53.38941 10.45481 18297 ft 367 kts 119°
2026-04-22 17:05 53.37702 10.49236 18742 ft 370 kts 119°
2026-04-22 17:05 53.36450 10.53012 19187 ft 372 kts 119°
2026-04-22 17:06 53.35199 10.56821 19593 ft 375 kts 119°
2026-04-22 17:06 53.33952 10.60663 20006 ft 377 kts 118°
2026-04-22 17:06 53.32705 10.64538 20410 ft 379 kts 118°
2026-04-22 17:06 53.31455 10.68444 20795 ft 382 kts 118°
2026-04-22 17:07 53.30221 10.72377 21178 ft 384 kts 115°
2026-04-22 17:07 53.29176 10.76503 21548 ft 386 kts 112°
2026-04-22 17:07 53.28191 10.80703 21912 ft 389 kts 111°
2026-04-22 17:07 53.27243 10.84932 22274 ft 391 kts 110°
2026-04-22 17:08 53.26307 10.89215 22618 ft 393 kts 110°
2026-04-22 17:08 53.25374 10.93515 22960 ft 395 kts 110°
2026-04-22 17:08 53.24436 10.97835 23280 ft 397 kts 110°
2026-04-22 17:08 53.23489 11.02173 23605 ft 399 kts 110°
2026-04-22 17:09 53.22533 11.06529 23914 ft 401 kts 110°
2026-04-22 17:09 53.21568 11.10898 24239 ft 402 kts 110°
2026-04-22 17:09 53.20925 11.13802 24481 ft 402 kts 110°
2026-04-22 17:09 53.19627 11.19644 25016 ft 401 kts 110°
2026-04-22 17:10 53.18659 11.23990 25396 ft 400 kts 110°
2026-04-22 17:10 53.17688 11.28336 25773 ft 399 kts 110°
2026-04-22 17:10 53.16719 11.32668 26142 ft 399 kts 110°
2026-04-22 17:10 53.15749 11.36993 26507 ft 398 kts 110°
2026-04-22 17:11 53.14779 11.41310 26880 ft 398 kts 110°
2026-04-22 17:11 53.13810 11.45619 27230 ft 397 kts 110°
2026-04-22 17:11 53.12840 11.49919 27567 ft 397 kts 111°
2026-04-22 17:11 53.11870 11.54212 27918 ft 396 kts 111°
2026-04-22 17:12 53.10899 11.58498 28246 ft 396 kts 111°
2026-04-22 17:12 53.09929 11.62776 28580 ft 395 kts 111°
2026-04-22 17:12 53.08956 11.67057 28891 ft 394 kts 111°
2026-04-22 17:12 53.07985 11.71320 29219 ft 394 kts 111°
2026-04-22 17:13 53.07014 11.75575 29525 ft 393 kts 111°
2026-04-22 17:13 53.06043 11.79824 29834 ft 393 kts 111°
2026-04-22 17:13 53.05072 11.84066 30138 ft 392 kts 111°
2026-04-22 17:13 53.04100 11.88300 30429 ft 392 kts 111°
2026-04-22 17:14 53.03140 11.92472 30714 ft 392 kts 111°
2026-04-22 17:14 53.02168 11.96693 31007 ft 391 kts 111°
2026-04-22 17:14 53.01194 12.00909 31262 ft 391 kts 111°
2026-04-22 17:14 53.00221 12.05117 31539 ft 390 kts 111°
2026-04-22 17:15 52.99562 12.07960 31722 ft 390 kts 111°
2026-04-22 17:15 52.98272 12.13516 32063 ft 390 kts 111°
2026-04-22 17:15 52.97294 12.17716 32311 ft 389 kts 111°
2026-04-22 17:15 52.96320 12.21892 32565 ft 389 kts 111°
2026-04-22 17:16 52.95343 12.26073 32800 ft 388 kts 111°
2026-04-22 17:16 52.94364 12.30254 32966 ft 389 kts 111°
2026-04-22 17:16 52.92378 12.38693 33002 ft 396 kts 111°
2026-04-22 17:17 52.90373 12.47190 33000 ft 396 kts 111°
2026-04-22 17:17 52.88360 12.55692 33000 ft 396 kts 111°
2026-04-22 17:18 52.86346 12.64171 32999 ft 396 kts 111°
2026-04-22 17:18 52.84322 12.72661 33000 ft 396 kts 111°
2026-04-22 17:19 52.80259 12.89598 33001 ft 396 kts 112°
2026-04-22 17:20 52.76172 13.06507 32999 ft 396 kts 112°
2026-04-22 17:21 52.73091 13.19166 33000 ft 396 kts 112°
2026-04-22 17:22 52.69994 13.31815 33001 ft 396 kts 112°
2026-04-22 17:23 52.66886 13.44440 33000 ft 396 kts 112°
2026-04-22 17:23 52.64115 13.55632 32999 ft 396 kts 112°
2026-04-22 17:24 52.62027 13.64030 32999 ft 396 kts 112°
2026-04-22 17:24 52.59934 13.72417 33001 ft 396 kts 112°
2026-04-22 17:25 52.57832 13.80807 33001 ft 396 kts 112°
2026-04-22 17:25 52.55727 13.89176 33001 ft 396 kts 112°
2026-04-22 17:26 52.53616 13.97542 33000 ft 396 kts 112°
2026-04-22 17:26 52.51496 14.05906 33001 ft 396 kts 112°
2026-04-22 17:27 52.49372 14.14257 33001 ft 396 kts 113°
2026-04-22 17:27 52.47243 14.22599 33000 ft 396 kts 113°
2026-04-22 17:28 52.45108 14.30933 33001 ft 396 kts 113°
2026-04-22 17:28 52.42966 14.39259 33001 ft 396 kts 113°
2026-04-22 17:29 52.40818 14.47580 32999 ft 396 kts 113°
2026-04-22 17:29 52.38679 14.55895 32998 ft 396 kts 110°
2026-04-22 17:30 52.37321 14.64619 33001 ft 396 kts 101°
2026-04-22 17:30 52.36323 14.73487 33001 ft 397 kts 100°
2026-04-22 17:31 52.35386 14.82387 32999 ft 397 kts 100°
2026-04-22 17:31 52.34444 14.91210 32999 ft 397 kts 100°
2026-04-22 17:32 52.33474 15.00092 33001 ft 397 kts 100°
2026-04-22 17:32 52.32491 15.08969 33000 ft 397 kts 100°
2026-04-22 17:33 52.31501 15.17841 33000 ft 397 kts 100°
2026-04-22 17:33 52.30504 15.26713 33000 ft 397 kts 100°
2026-04-22 17:34 52.29500 15.35590 33001 ft 397 kts 101°
2026-04-22 17:34 52.28492 15.44442 33000 ft 397 kts 101°
2026-04-22 17:35 52.27476 15.53303 33000 ft 397 kts 101°
2026-04-22 17:35 52.26454 15.62157 33000 ft 397 kts 101°
2026-04-22 17:36 52.25425 15.71013 32999 ft 397 kts 101°
2026-04-22 17:36 52.24391 15.79854 33000 ft 397 kts 101°
2026-04-22 17:37 52.23349 15.88695 33000 ft 397 kts 101°
2026-04-22 17:37 52.22298 15.97526 33001 ft 397 kts 101°
2026-04-22 17:38 52.21237 16.06356 33001 ft 397 kts 101°
2026-04-22 17:38 52.20172 16.15172 33001 ft 397 kts 101°
2026-04-22 17:39 52.19099 16.24000 33000 ft 397 kts 101°
2026-04-22 17:40 52.17481 16.37224 33000 ft 397 kts 101°
2026-04-22 17:40 52.16394 16.46034 33000 ft 397 kts 101°
2026-04-22 17:41 52.15301 16.54839 33001 ft 397 kts 101°
2026-04-22 17:41 52.14200 16.63648 33001 ft 397 kts 102°
2026-04-22 17:42 52.12818 16.72309 32999 ft 396 kts 113°
2026-04-22 17:42 52.10200 16.80112 33001 ft 396 kts 122°
2026-04-22 17:43 52.07241 16.87663 33000 ft 396 kts 123°
2026-04-22 17:43 52.04218 16.95159 33000 ft 396 kts 123°
2026-04-22 17:44 52.01208 17.02654 33000 ft 396 kts 123°
2026-04-22 17:44 51.98214 17.10147 32999 ft 396 kts 123°
2026-04-22 17:45 51.95213 17.17655 33000 ft 396 kts 123°
2026-04-22 17:45 51.92218 17.25148 33000 ft 396 kts 123°
2026-04-22 17:46 51.89217 17.32642 33000 ft 396 kts 123°
2026-04-22 17:46 51.86212 17.40121 33000 ft 396 kts 123°
2026-04-22 17:47 51.83200 17.47595 32999 ft 396 kts 123°
2026-04-22 17:47 51.80183 17.55060 33000 ft 396 kts 123°
2026-04-22 17:48 51.77674 17.61251 33000 ft 397 kts 123°
2026-04-22 17:48 51.74134 17.69957 33000 ft 397 kts 123°
2026-04-22 17:49 51.71099 17.77387 33000 ft 397 kts 123°
2026-04-22 17:49 51.68061 17.84801 33000 ft 397 kts 124°
2026-04-22 17:50 51.65038 17.92158 33000 ft 396 kts 124°
2026-04-22 17:50 51.61990 17.99554 33000 ft 396 kts 124°
2026-04-22 17:51 51.58938 18.06939 33000 ft 396 kts 124°
2026-04-22 17:51 51.55882 18.14314 32999 ft 396 kts 124°
2026-04-22 17:52 51.52821 18.21680 33000 ft 396 kts 124°
2026-04-22 17:52 51.49752 18.29043 33000 ft 396 kts 124°
2026-04-22 17:53 51.46682 18.36389 33000 ft 396 kts 124°
2026-04-22 17:53 51.43606 18.43727 32999 ft 397 kts 124°
2026-04-22 17:54 51.40526 18.51056 32999 ft 397 kts 124°
2026-04-22 17:54 51.37440 18.58375 33000 ft 397 kts 124°
2026-04-22 17:55 51.34871 18.64454 33000 ft 397 kts 124°
2026-04-22 17:55 51.31252 18.72994 33000 ft 397 kts 124°
2026-04-22 17:56 51.28153 18.80284 33000 ft 397 kts 124°
2026-04-22 17:56 51.25049 18.87564 33000 ft 397 kts 124°
2026-04-22 17:57 51.21941 18.94835 33000 ft 397 kts 124°
2026-04-22 17:57 51.18827 19.02098 33000 ft 397 kts 124°
2026-04-22 17:58 51.15709 19.09352 33000 ft 397 kts 124°
2026-04-22 17:58 51.12584 19.16598 33000 ft 397 kts 125°
2026-04-22 17:59 51.09451 19.23840 33000 ft 397 kts 125°
2026-04-22 17:59 51.06337 19.31016 33000 ft 397 kts 125°
2026-04-22 18:00 51.03707 19.37064 33000 ft 397 kts 125°
2026-04-22 18:00 51.00056 19.45436 33000 ft 397 kts 125°
2026-04-22 18:01 50.96909 19.52631 32999 ft 397 kts 125°
2026-04-22 18:01 50.93757 19.59819 32999 ft 397 kts 125°
2026-04-22 18:02 50.90608 19.67015 32999 ft 397 kts 122°
2026-04-22 18:02 50.88106 19.74795 33000 ft 397 kts 115°
2026-04-22 18:03 50.85835 19.82775 33000 ft 397 kts 114°
2026-04-22 18:03 50.83586 19.90753 33001 ft 397 kts 114°
2026-04-22 18:04 50.81333 19.98738 33001 ft 397 kts 114°
2026-04-22 18:04 50.79078 20.06707 33000 ft 398 kts 114°
2026-04-22 18:05 50.76814 20.14683 33000 ft 397 kts 114°
2026-04-22 18:05 50.74547 20.22643 33001 ft 397 kts 114°
2026-04-22 18:06 50.72275 20.30594 33000 ft 397 kts 114°
2026-04-22 18:06 50.69996 20.38543 32999 ft 397 kts 114°
2026-04-22 18:07 50.68100 20.45134 33000 ft 397 kts 115°
2026-04-22 18:07 50.65426 20.54405 33001 ft 397 kts 115°
2026-04-22 18:08 50.63134 20.62320 33000 ft 397 kts 115°
2026-04-22 18:08 50.60835 20.70231 33000 ft 397 kts 115°
2026-04-22 18:09 50.58531 20.78134 33000 ft 397 kts 115°
2026-04-22 18:09 50.56222 20.86029 33001 ft 397 kts 115°
2026-04-22 18:10 50.53921 20.93870 33000 ft 397 kts 115°
2026-04-22 18:10 50.51603 21.01745 33001 ft 397 kts 115°
2026-04-22 18:11 50.49279 21.09612 33000 ft 397 kts 115°
2026-04-22 18:11 50.47328 21.16199 33000 ft 397 kts 115°
2026-04-22 18:12 50.44996 21.24048 33000 ft 397 kts 115°
2026-04-22 18:12 50.42658 21.31889 33001 ft 397 kts 115°
2026-04-22 18:13 50.40316 21.39721 33000 ft 397 kts 115°
2026-04-22 18:13 50.37969 21.47546 33000 ft 397 kts 115°
2026-04-22 18:14 50.35613 21.55371 33000 ft 397 kts 115°
2026-04-22 18:14 50.33271 21.63128 33000 ft 397 kts 115°
2026-04-22 18:15 50.30891 21.70984 33001 ft 397 kts 115°
2026-04-22 18:15 50.28537 21.78730 33000 ft 397 kts 116°
2026-04-22 18:16 50.26162 21.86521 33000 ft 397 kts 116°
2026-04-22 18:16 50.23781 21.94305 32999 ft 397 kts 116°
2026-04-22 18:17 50.21402 22.02059 32418 ft 394 kts 116°
2026-04-22 18:17 50.20221 22.05899 31899 ft 391 kts 116°
2026-04-22 18:17 50.19046 22.09714 31339 ft 388 kts 116°
2026-04-22 18:17 50.17876 22.13506 30713 ft 388 kts 116°
2026-04-22 18:18 50.16705 22.17295 30059 ft 388 kts 116°
2026-04-22 18:18 50.15531 22.21089 29367 ft 389 kts 116°
2026-04-22 18:18 50.14352 22.24893 28659 ft 390 kts 116°
2026-04-22 18:18 50.13173 22.28692 27942 ft 391 kts 116°
2026-04-22 18:19 50.11984 22.32515 27187 ft 392 kts 116°
2026-04-22 18:19 50.10794 22.36338 26413 ft 393 kts 116°
2026-04-22 18:19 50.09599 22.40169 25628 ft 394 kts 116°
2026-04-22 18:19 50.08399 22.44010 24814 ft 395 kts 116°
2026-04-22 18:20 50.07195 22.47859 23947 ft 396 kts 116°
2026-04-22 18:20 50.05987 22.51714 23139 ft 396 kts 116°
2026-04-22 18:20 50.04783 22.55551 22406 ft 393 kts 116°
2026-04-22 18:20 50.03588 22.59353 21673 ft 389 kts 116°
2026-04-22 18:21 50.02404 22.63115 20972 ft 385 kts 116°
2026-04-22 18:21 50.01229 22.66845 20262 ft 381 kts 116°
2026-04-22 18:21 50.00389 22.70707 19544 ft 378 kts 99°
2026-04-22 18:21 49.99986 22.74723 18843 ft 373 kts 104°
2026-04-22 18:22 49.99068 22.78459 18123 ft 369 kts 118°
2026-04-22 18:22 49.97787 22.81877 17431 ft 365 kts 121°
2026-04-22 18:22 49.96467 22.85227 16712 ft 361 kts 122°
2026-04-22 18:22 49.95160 22.88533 16202 ft 358 kts 121°
2026-04-22 18:23 49.94152 22.92045 16017 ft 358 kts 103°
2026-04-22 18:23 49.93934 22.95876 16000 ft 357 kts 89°
2026-04-22 18:23 49.94033 22.99730 16000 ft 358 kts 87°
2026-04-22 18:24 49.94296 23.07439 16000 ft 358 kts 87°
2026-04-22 18:24 49.94165 23.11279 15999 ft 357 kts 103°
2026-04-22 18:24 49.92234 23.18332 15516 ft 353 kts 117°
2026-04-22 18:25 49.91139 23.21725 14763 ft 351 kts 117°
2026-04-22 18:25 49.90046 23.25103 14053 ft 348 kts 117°
2026-04-22 18:25 49.88967 23.28435 13354 ft 344 kts 117°
2026-04-22 18:26 49.86844 23.34990 11938 ft 337 kts 117°
2026-04-22 18:26 49.85797 23.38221 11234 ft 334 kts 117°
2026-04-22 18:26 49.84775 23.41374 10539 ft 330 kts 117°
2026-04-22 18:26 49.83750 23.44534 9838 ft 327 kts 117°
2026-04-22 18:27 49.82749 23.47621 9480 ft 313 kts 117°
2026-04-22 18:27 49.81798 23.50556 9207 ft 298 kts 117°
2026-04-22 18:27 49.80881 23.53386 8782 ft 291 kts 117°
2026-04-22 18:27 49.79981 23.56164 8281 ft 287 kts 117°
2026-04-22 18:28 49.79089 23.58916 7754 ft 284 kts 117°
2026-04-22 18:28 49.78206 23.61639 7239 ft 282 kts 117°
2026-04-22 18:28 49.77329 23.64340 6706 ft 280 kts 117°
2026-04-22 18:28 49.76460 23.67021 6194 ft 278 kts 117°
2026-04-22 18:29 49.75597 23.69682 5667 ft 276 kts 117°
2026-04-22 18:29 49.74741 23.72323 5154 ft 274 kts 117°
2026-04-22 18:29 49.73889 23.74947 4630 ft 272 kts 117°
2026-04-22 18:29 49.73043 23.77549 4177 ft 270 kts 117°
2026-04-22 18:30 49.72203 23.80134 3869 ft 269 kts 117°
2026-04-22 18:30 49.70528 23.85291 3029 ft 265 kts 117°
2026-04-22 18:30 49.69702 23.87839 2972 ft 266 kts 117°
2026-04-22 18:31 49.68875 23.90389 2971 ft 266 kts 117°
2026-04-22 18:31 49.68048 23.92937 2973 ft 265 kts 117°
2026-04-22 18:31 49.67221 23.95484 2974 ft 265 kts 117°
2026-04-22 18:31 49.66391 23.98036 2973 ft 266 kts 117°
2026-04-22 18:32 49.65562 24.00581 2973 ft 265 kts 117°
2026-04-22 18:32 49.64734 24.03126 2976 ft 265 kts 117°
2026-04-22 18:32 49.63905 24.05668 2971 ft 264 kts 117°
2026-04-22 18:32 49.63110 24.08108 2967 ft 244 kts 117°
2026-04-22 18:33 49.62378 24.10354 2966 ft 225 kts 117°
2026-04-22 18:33 49.61711 24.12439 2970 ft 211 kts 113°
2026-04-22 18:33 49.61509 24.14636 2971 ft 208 kts 79°
2026-04-22 18:33 49.62148 24.16588 2973 ft 206 kts 43°
2026-04-22 18:34 49.63384 24.17596 2973 ft 199 kts
2026-04-22 18:34 49.64697 24.17543 2981 ft 181 kts 350°
2026-04-22 18:34 49.65891 24.17209 2968 ft 170 kts 347°
2026-04-22 18:34 49.67018 24.16545 2984 ft 179 kts 328°
2026-04-22 18:35 49.68012 24.15372 2979 ft 181 kts 316°
2026-04-22 18:35 49.68915 24.14013 2976 ft 181 kts 314°
2026-04-22 18:35 49.69775 24.12710 2949 ft 170 kts 315°
2026-04-22 18:35 49.70603 24.11460 2973 ft 160 kts 315°
2026-04-22 18:36 49.71384 24.10283 2973 ft 152 kts 315°
2026-04-22 18:36 49.72097 24.09210 2944 ft 138 kts 314°
2026-04-22 18:36 49.72770 24.08199 2973 ft 134 kts 314°
2026-04-22 18:36 49.73438 24.07195 2912 ft 135 kts 315°
2026-04-22 18:37 49.74111 24.06187 2741 ft 135 kts 314°
2026-04-22 18:37 49.74780 24.05179 2528 ft 134 kts 314°
2026-04-22 18:37 49.75231 24.04500 2417 ft 134 kts 314°
2026-04-22 18:37 49.76111 24.03175 2189 ft 133 kts 314°
2026-04-22 18:38 49.76773 24.02177 2001 ft 132 kts 314°
2026-04-22 18:38 49.77432 24.01187 1839 ft 132 kts 315°
2026-04-22 18:38 49.78089 24.00193 1685 ft 133 kts 315°
2026-04-22 18:39 49.79952 23.97506 2244 ft 215 kts 315°
2026-04-22 18:39 49.81093 23.95857 2676 ft 233 kts 317°
2026-04-22 18:39 49.82323 23.94225 3194 ft 226 kts 319°
2026-04-22 18:39 49.83494 23.92692 3485 ft 216 kts 319°
2026-04-22 18:40 49.84651 23.91212 3638 ft 216 kts 320°
2026-04-22 18:40 49.85824 23.89791 3842 ft 213 kts 327°
2026-04-22 18:40 49.87226 23.89141 3957 ft 213 kts
2026-04-22 18:40 49.88624 23.89806 3968 ft 215 kts 33°
2026-04-22 18:41 49.89736 23.91348 3973 ft 216 kts 51°
2026-04-22 18:41 49.90309 23.93464 3973 ft 216 kts 85°
2026-04-22 18:41 49.90036 23.95715 3972 ft 215 kts 116°
2026-04-22 18:41 49.89250 23.97691 3973 ft 216 kts 126°
2026-04-22 18:42 49.88368 23.99577 3978 ft 216 kts 127°
2026-04-22 18:42 49.87474 24.01455 3974 ft 217 kts 127°
2026-04-22 18:42 49.86579 24.03330 3971 ft 217 kts 127°
2026-04-22 18:42 49.85684 24.05208 3970 ft 217 kts 127°
2026-04-22 18:43 49.84789 24.07086 3971 ft 217 kts 127°
2026-04-22 18:43 49.83893 24.08965 3971 ft 217 kts 127°
2026-04-22 18:43 49.83002 24.10832 3971 ft 214 kts 127°
2026-04-22 18:43 49.82122 24.12676 3972 ft 212 kts 127°
2026-04-22 18:44 49.81244 24.14515 3828 ft 214 kts 127°
2026-04-22 18:44 49.80357 24.16367 3538 ft 213 kts 127°
2026-04-22 18:44 49.79484 24.18192 3270 ft 210 kts 127°
2026-04-22 18:44 49.78616 24.20005 3032 ft 208 kts 127°
2026-04-22 18:45 49.77753 24.21806 2973 ft 209 kts 127°
2026-04-22 18:45 49.76737 24.23373 2970 ft 207 kts 153°
2026-04-22 18:45 49.75367 24.23880 2975 ft 204 kts 180°
2026-04-22 18:45 49.73952 24.23768 2975 ft 204 kts 186°
2026-04-22 18:46 49.72537 24.23549 2973 ft 205 kts 187°
2026-04-22 18:46 49.71120 24.23319 2972 ft 205 kts 188°
2026-04-22 18:46 49.69798 24.22618 2980 ft 201 kts 218°
2026-04-22 18:46 49.69037 24.20999 2972 ft 182 kts 254°
2026-04-22 18:47 49.68946 24.19148 2971 ft 169 kts 273°
2026-04-22 18:47 49.69055 24.17363 2969 ft 166 kts 276°
2026-04-22 18:47 49.69196 24.15599 2972 ft 166 kts 277°
2026-04-22 18:47 49.69409 24.13854 2951 ft 166 kts 293°
2026-04-22 18:48 49.70052 24.12388 2977 ft 166 kts 311°
2026-04-22 18:48 49.70859 24.11116 2976 ft 166 kts 314°
2026-04-22 18:48 49.71682 24.09861 2973 ft 166 kts 315°
2026-04-22 18:48 49.72487 24.08651 2974 ft 156 kts 314°
2026-04-22 18:49 49.73246 24.07500 2937 ft 151 kts 314°
2026-04-22 18:49 49.73991 24.06365 2767 ft 150 kts 314°
2026-04-22 18:49 49.74740 24.05237 2555 ft 150 kts 315°
2026-04-22 18:49 49.75479 24.04127 2342 ft 143 kts 314°
2026-04-22 18:50 49.76165 24.03092 2149 ft 133 kts 314°
2026-04-22 18:50 49.76826 24.02096 1988 ft 132 kts 314°
2026-04-22 18:50 49.77483 24.01108 1816 ft 132 kts 314°
2026-04-22 18:50 49.78144 24.00122 1663 ft 132 kts 315°
2026-04-22 18:51 49.78799 23.99122 1458 ft 132 kts 314°
2026-04-22 18:51 49.79447 23.98119 1279 ft 132 kts 314°
2026-04-22 18:51 49.80114 23.97148 1099 ft 132 kts 315°
2026-04-22 18:51 49.80705 23.96241 1074 ft 96 kts 315°
2026-04-22 18:52 49.81120 23.95634 1074 ft 73 kts 314°
2026-04-22 18:52 49.81408 23.95189 1072 ft 55 kts 316°
2026-04-22 18:52 49.81640 23.94842 1069 ft 23 kts 322°
2026-04-22 18:52 49.81712 23.94834 1072 ft 6 kts 27°
2026-04-22 18:53 49.81730 23.94856 1074 ft 2 kts 39°
2026-04-22 18:53 49.81771 23.94922 1071 ft 0 kts 54°
2026-04-22 18:54 49.81775 23.94929 1072 ft 2 kts 50°
2026-04-22 18:54 49.81792 23.94956 1073 ft 5 kts 48°
2026-04-22 18:55 49.81813 23.95008 1073 ft 7 kts 64°
2026-04-22 18:55 49.81821 23.95078 1073 ft 5 kts 96°
2026-04-22 18:55 49.81804 23.95114 1074 ft 2 kts 150°
2026-04-22 18:55 49.81794 23.95119 1070 ft 0 kts 160°